Location: Newark
(46.7636°N, 1.8358°W)
Time: 21:17:28
(UTC+00:00)

Tiros 1 - Pass Details

Date: 22 October 2019
Orbit: 630 x 664 km, 48.4° (Epoch: 17 November)

Event Time Altitude Azimuth Distance (km) Brightness Sun altitude
Exits shadow 02:41:14 13° 75° (ENE) 1,879 10.1 -39.4°
Drops below altitude 10° 02:41:47 10° 75° (ENE) 2,084 10.4 -39.4°
Sets 02:44:08 0° 76° (ENE) 2,999 11.4 -39.0°
